Flood From: 24-01-2018 06:00 Until: 25-01-2018 06:00 warning for: Flood Level: Yellow info button

Although rather usual in this region, locally or potentially dangerous phenomena are expected. (such as local winds, summer thunderstorms, rising streams or high waves) Be aware and pay attention to the latest weather updates, especially if you carry out activities exposed to weather or close to a stream or shoreline. 


Meteo18 Weather Cam more information Meteo18 Weather Cam


Thunder radar more information blitzortung!


Rain radar more information rain snow radar


Visit our other weather sites:

Template documentation
and downloads

And another site



Weather Underground History page Text

Daily Summary for September 13, 2016 Units:  Metric    English   Both
« Previous Day
Next Day »
Daily Weekly Monthly Yearly Custom
  High: Low: Average:
Temperature: 33.8 °C 18.9 °C 26.3 °C
Dew Point: 14.9 °C 11.0 °C 13.6 °C
Humidity: 75 % 25 % 48 %
Wind Speed: 17.7 km/h 0.0 km/h 3.5 km/h
Wind Gust: 20.9 km/h - -
Wind:- - ESE
Pressure: 1012.4 hPa 1005.3 hPa -
Precipitation: 0.0 mm    
Historical Graphs
 
 
Tabular Data for September 13, 2016
Time Temperature Dew Point Pressure Wind Wind Speed Wind Gust Humidity Rainfall Rate (Hourly)
00:02 25.7 °C 14.5 °C 1012.4 hPa NE 4.8 km/h 6.4 km/h 50 % 0.0 mm
00:12 25.6 °C 14.7 °C 1012.1 hPa NE 3.2 km/h 8.0 km/h 51 % 0.0 mm
00:17 25.5 °C 14.6 °C 1012.1 hPa NE 4.8 km/h 8.0 km/h 51 % 0.0 mm
00:22 25.3 °C 14.7 °C 1012.1 hPa NE 6.4 km/h 8.0 km/h 52 % 0.0 mm
00:32 24.9 °C 14.7 °C 1012.1 hPa NE 3.2 km/h 8.0 km/h 53 % 0.0 mm
00:37 24.8 °C 14.6 °C 1012.1 hPa NE 3.2 km/h 8.0 km/h 53 % 0.0 mm
00:47 24.5 °C 14.6 °C 1012.1 hPa NE 4.8 km/h 6.4 km/h 54 % 0.0 mm
00:52 24.5 °C 14.6 °C 1012.1 hPa NE 3.2 km/h 8.0 km/h 54 % 0.0 mm
01:02 24.4 °C 14.8 °C 1012.1 hPa NE 4.8 km/h 8.0 km/h 55 % 0.0 mm
01:07 24.2 °C 14.6 °C 1011.7 hPa NE 4.8 km/h 8.0 km/h 55 % 0.0 mm
01:12 24.2 °C 14.6 °C 1012.1 hPa NNE 3.2 km/h 8.0 km/h 55 % 0.0 mm
01:17 24.2 °C 14.9 °C 1012.1 hPa NE 1.6 km/h 6.4 km/h 56 % 0.0 mm
01:22 24.0 °C 14.7 °C 1011.7 hPa NE 4.8 km/h 6.4 km/h 56 % 0.0 mm
01:27 23.9 °C 14.6 °C 1011.7 hPa ENE 3.2 km/h 6.4 km/h 56 % 0.0 mm
01:32 23.9 °C 14.6 °C 1011.7 hPa NE 3.2 km/h 6.4 km/h 56 % 0.0 mm
01:37 23.8 °C 14.8 °C 1011.7 hPa ENE 4.8 km/h 8.0 km/h 57 % 0.0 mm
01:42 23.7 °C 14.7 °C 1011.7 hPa ENE 3.2 km/h 8.0 km/h 57 % 0.0 mm
01:47 23.6 °C 14.6 °C 1011.7 hPa Calm   6.4 km/h 57 % 0.0 mm
01:52 23.4 °C 14.7 °C 1011.7 hPa ENE 4.8 km/h 6.4 km/h 58 % 0.0 mm
01:57 23.3 °C 14.8 °C 1011.7 hPa ENE 3.2 km/h 4.8 km/h 59 % 0.0 mm
02:02 23.1 °C 14.6 °C 1011.7 hPa NE 3.2 km/h 4.8 km/h 59 % 0.0 mm
02:12 22.7 °C 14.5 °C 1011.7 hPa NE 3.2 km/h 6.4 km/h 60 % 0.0 mm
02:32 22.5 °C 14.6 °C 1011.7 hPa NE 1.6 km/h 4.8 km/h 61 % 0.0 mm
02:37 22.5 °C 14.6 °C 1011.7 hPa NE 3.2 km/h 4.8 km/h 61 % 0.0 mm
02:42 22.5 °C 14.9 °C 1011.7 hPa ENE 1.6 km/h 4.8 km/h 62 % 0.0 mm
02:47 22.4 °C 14.8 °C 1011.4 hPa ENE 1.6 km/h 4.8 km/h 62 % 0.0 mm
02:57 22.1 °C 14.7 °C 1011.4 hPa Calm   4.8 km/h 63 % 0.0 mm
03:02 21.9 °C 14.5 °C 1011.7 hPa Calm   4.8 km/h 63 % 0.0 mm
03:12 21.9 °C 14.8 °C 1011.4 hPa Calm   3.2 km/h 64 % 0.0 mm
03:17 21.8 °C 14.7 °C 1011.4 hPa Calm   3.2 km/h 64 % 0.0 mm
03:22 21.6 °C 14.5 °C 1011.4 hPa Calm   3.2 km/h 64 % 0.0 mm
03:27 21.4 °C 14.5 °C 1011.4 hPa Calm   1.6 km/h 65 % 0.0 mm
03:32 21.3 °C 14.5 °C 1011.4 hPa Calm   1.6 km/h 65 % 0.0 mm
03:42 20.7 °C 14.6 °C 1011.4 hPa Calm     68 % 0.0 mm
03:47 20.4 °C 14.3 °C 1011.4 hPa Calm   3.2 km/h 68 % 0.0 mm
03:52 20.5 °C 14.4 °C 1011.4 hPa Calm   3.2 km/h 68 % 0.0 mm
03:57 20.6 °C 14.5 °C 1011.4 hPa Calm     68 % 0.0 mm
04:02 20.3 °C 14.4 °C 1011.4 hPa Calm     69 % 0.0 mm
04:12 20.0 °C 14.6 °C 1011.4 hPa Calm     71 % 0.0 mm
04:17 20.1 °C 14.7 °C 1011.4 hPa Calm     71 % 0.0 mm
04:22 20.2 °C 14.8 °C 1011.4 hPa Calm     71 % 0.0 mm
04:27 20.2 °C 14.6 °C 1011.4 hPa Calm     70 % 0.0 mm
04:32 20.1 °C 14.5 °C 1011.4 hPa Calm     70 % 0.0 mm
04:37 19.8 °C 14.6 °C 1011.4 hPa Calm     72 % 0.0 mm
04:42 19.7 °C 14.5 °C 1011.4 hPa Calm     72 % 0.0 mm
04:47 19.8 °C 14.4 °C 1011.4 hPa Calm     71 % 0.0 mm
04:52 19.7 °C 14.5 °C 1011.4 hPa Calm     72 % 0.0 mm
04:57 19.7 °C 14.5 °C 1011.4 hPa Calm     72 % 0.0 mm
05:02 19.7 °C 14.5 °C 1011.4 hPa Calm     72 % 0.0 mm
05:07 19.8 °C 14.6 °C 1011.4 hPa Calm     72 % 0.0 mm
05:12 19.9 °C 14.5 °C 1011.1 hPa Calm     71 % 0.0 mm
05:17 19.8 °C 14.4 °C 1011.1 hPa Calm     71 % 0.0 mm
05:22 19.7 °C 14.5 °C 1011.1 hPa Calm     72 % 0.0 mm
05:27 19.4 °C 14.2 °C 1011.1 hPa Calm     72 % 0.0 mm
05:32 19.4 °C 14.4 °C 1011.1 hPa Calm     73 % 0.0 mm
05:37 19.7 °C 14.5 °C 1011.1 hPa Calm     72 % 0.0 mm
05:42 19.7 °C 14.3 °C 1011.1 hPa Calm     71 % 0.0 mm
05:47 19.7 °C 14.5 °C 1011.1 hPa Calm     72 % 0.0 mm
05:52 19.8 °C 14.4 °C 1011.1 hPa Calm     71 % 0.0 mm
05:57 19.8 °C 14.4 °C 1011.1 hPa Calm     71 % 0.0 mm
06:02 19.7 °C 14.5 °C 1011.1 hPa Calm     72 % 0.0 mm
06:07 19.7 °C 14.5 °C 1011.1 hPa Calm     72 % 0.0 mm
06:12 19.4 °C 14.4 °C 1011.1 hPa Calm     73 % 0.0 mm
06:17 19.2 °C 14.5 °C 1011.1 hPa Calm     74 % 0.0 mm
06:22 19.2 °C 14.2 °C 1011.1 hPa Calm     73 % 0.0 mm
06:32 19.3 °C 14.3 °C 1011.1 hPa Calm     73 % 0.0 mm
06:37 19.4 °C 14.4 °C 1011.1 hPa Calm     73 % 0.0 mm
06:42 19.4 °C 14.4 °C 1011.1 hPa Calm     73 % 0.0 mm
06:52 19.8 °C 14.4 °C 1011.1 hPa Calm     71 % 0.0 mm
07:02 19.5 °C 14.3 °C 1011.1 hPa Calm     72 % 0.0 mm
07:07 19.5 °C 14.3 °C 1011.1 hPa Calm     72 % 0.0 mm
07:12 19.4 °C 14.2 °C 1011.1 hPa Calm     72 % 0.0 mm
07:17 19.1 °C 14.1 °C 1011.1 hPa Calm     73 % 0.0 mm
07:22 18.9 °C 14.4 °C 1011.1 hPa Calm     75 % 0.0 mm
07:27 19.1 °C 14.4 °C 1011.1 hPa Calm     74 % 0.0 mm
07:32 19.2 °C 14.2 °C 1011.4 hPa Calm     73 % 0.0 mm
07:37 19.2 °C 14.2 °C 1011.4 hPa Calm     73 % 0.0 mm
07:42 19.1 °C 14.1 °C 1011.4 hPa Calm     73 % 0.0 mm
07:47 18.9 °C 14.0 °C 1011.4 hPa Calm     73 % 0.0 mm
07:57 19.3 °C 14.1 °C 1011.4 hPa Calm     72 % 0.0 mm
08:02 19.4 °C 14.0 °C 1011.4 hPa Calm     71 % 0.0 mm
08:12 19.5 °C 14.1 °C 1011.4 hPa Calm     71 % 0.0 mm
08:17 19.4 °C 14.0 °C 1011.4 hPa Calm     71 % 0.0 mm
08:22 19.4 °C 13.8 °C 1011.4 hPa Calm     70 % 0.0 mm
08:32 19.4 °C 14.0 °C 1011.4 hPa Calm     71 % 0.0 mm
08:37 19.5 °C 13.9 °C 1011.4 hPa Calm     70 % 0.0 mm
08:42 19.8 °C 13.9 °C 1011.4 hPa Calm     69 % 0.0 mm
08:47 20.0 °C 13.9 °C 1011.4 hPa Calm     68 % 0.0 mm
08:52 20.3 °C 14.2 °C 1011.4 hPa Calm     68 % 0.0 mm
08:57 20.8 °C 14.4 °C 1011.4 hPa Calm   4.8 km/h 67 % 0.0 mm
09:02 21.4 °C 14.3 °C 1011.4 hPa Calm   4.8 km/h 64 % 0.0 mm
09:07 22.2 °C 14.3 °C 1011.4 hPa Calm   6.4 km/h 61 % 0.0 mm
09:12 22.8 °C 14.4 °C 1011.4 hPa Calm   6.4 km/h 59 % 0.0 mm
09:17 23.3 °C 14.3 °C 1011.4 hPa SSE 3.2 km/h 8.0 km/h 57 % 0.0 mm
09:22 23.8 °C 14.5 °C 1011.4 hPa SSW 1.6 km/h 8.0 km/h 56 % 0.0 mm
09:27 24.3 °C 14.4 °C 1011.4 hPa ESE 8.0 km/h 12.9 km/h 54 % 0.0 mm
09:37 25.4 °C 14.2 °C 1011.4 hPa SW 1.6 km/h 9.7 km/h 50 % 0.0 mm
09:42 25.6 °C 14.4 °C 1011.4 hPa SE 1.6 km/h 9.7 km/h 50 % 0.0 mm
09:47 25.3 °C 14.1 °C 1011.4 hPa SSE 3.2 km/h 14.5 km/h 50 % 0.0 mm
09:52 25.4 °C 13.9 °C 1011.4 hPa SE 9.7 km/h 14.5 km/h 49 % 0.0 mm
09:57 25.4 °C 13.9 °C 1011.4 hPa SE 1.6 km/h 16.1 km/h 49 % 0.0 mm
10:07 25.7 °C 14.2 °C 1011.4 hPa NE 8.0 km/h 16.1 km/h 49 % 0.0 mm
10:12 25.8 °C 14.0 °C 1011.4 hPa ENE 8.0 km/h 16.1 km/h 48 % 0.0 mm
10:17 25.8 °C 14.0 °C 1011.1 hPa SE 1.6 km/h 19.3 km/h 48 % 0.0 mm
10:22 26.2 °C 14.0 °C 1011.1 hPa SE 9.7 km/h 19.3 km/h 47 % 0.0 mm
10:32 26.8 °C 13.9 °C 1011.1 hPa ESE 3.2 km/h 19.3 km/h 45 % 0.0 mm
10:37 27.3 °C 14.3 °C 1011.1 hPa East 3.2 km/h 16.1 km/h 45 % 0.0 mm
10:42 27.1 °C 14.1 °C 1011.1 hPa ENE 3.2 km/h 14.5 km/h 45 % 0.0 mm
10:47 26.8 °C 13.9 °C 1011.1 hPa SE 17.7 km/h 17.7 km/h 45 % 0.0 mm
10:52 26.4 °C 13.8 °C 1011.1 hPa West 3.2 km/h 17.7 km/h 46 % 0.0 mm
10:57 26.5 °C 13.9 °C 1011.1 hPa ENE 6.4 km/h 17.7 km/h 46 % 0.0 mm
11:02 26.6 °C 14.0 °C 1011.1 hPa Calm   17.7 km/h 46 % 0.0 mm
11:07 26.8 °C 14.2 °C 1011.1 hPa ESE 3.2 km/h 19.3 km/h 46 % 0.0 mm
11:17 26.9 °C 14.0 °C 1011.1 hPa SE 1.6 km/h 19.3 km/h 45 % 0.0 mm
11:22 26.7 °C 14.1 °C 1011.1 hPa ENE 3.2 km/h 14.5 km/h 46 % 0.0 mm
11:32 26.6 °C 14.4 °C 1011.1 hPa ESE 3.2 km/h 11.3 km/h 47 % 0.0 mm
11:37 26.7 °C 14.1 °C 1011.1 hPa ESE 8.0 km/h 8.0 km/h 46 % 0.0 mm
11:42 26.8 °C 14.2 °C 1010.7 hPa East 4.8 km/h 14.5 km/h 46 % 0.0 mm
11:47 27.3 °C 14.3 °C 1010.7 hPa SE 11.3 km/h 14.5 km/h 45 % 0.0 mm
11:52 27.6 °C 14.2 °C 1010.7 hPa SSE 11.3 km/h 14.5 km/h 44 % 0.0 mm
11:57 27.4 °C 14.1 °C 1010.7 hPa ESE 3.2 km/h 14.5 km/h 44 % 0.0 mm
12:02 27.6 °C 14.2 °C 1010.4 hPa ENE 3.2 km/h 14.5 km/h 44 % 0.0 mm
12:12 28.2 °C 14.4 °C 1010.4 hPa ESE 6.4 km/h 12.9 km/h 43 % 0.0 mm
12:17 28.6 °C 14.1 °C 1010.4 hPa NW 3.2 km/h 14.5 km/h 41 % 0.0 mm
12:22 29.0 °C 14.8 °C 1010.4 hPa SE 4.8 km/h 14.5 km/h 42 % 0.0 mm
12:27 29.3 °C 14.7 °C 1010.0 hPa ESE 4.8 km/h 14.5 km/h 41 % 0.0 mm
12:32 29.6 °C 14.6 °C 1010.0 hPa SSE 4.8 km/h 14.5 km/h 40 % 0.0 mm
12:37 29.7 °C 14.7 °C 1010.0 hPa East 1.6 km/h 16.1 km/h 40 % 0.0 mm
12:42 29.9 °C 14.4 °C 1010.0 hPa SE 3.2 km/h 16.1 km/h 39 % 0.0 mm
12:47 29.8 °C 14.4 °C 1010.0 hPa SW 3.2 km/h 14.5 km/h 39 % 0.0 mm
12:52 30.2 °C 14.3 °C 1010.0 hPa ESE 6.4 km/h 14.5 km/h 38 % 0.0 mm
12:57 30.2 °C 14.3 °C 1010.0 hPa SSE 6.4 km/h 16.1 km/h 38 % 0.0 mm
13:02 30.4 °C 14.1 °C 1010.0 hPa East 14.5 km/h 19.3 km/h 37 % 0.0 mm
13:07 30.5 °C 13.7 °C 1009.7 hPa SSE 8.0 km/h 19.3 km/h 36 % 0.0 mm
13:17 30.6 °C 13.8 °C 1009.7 hPa ESE 1.6 km/h 16.1 km/h 36 % 0.0 mm
13:27 30.4 °C 14.1 °C 1009.4 hPa East 3.2 km/h 16.1 km/h 37 % 0.0 mm
13:32 30.6 °C 13.8 °C 1009.4 hPa SW 3.2 km/h 14.5 km/h 36 % 0.0 mm
13:37 30.7 °C 13.9 °C 1009.4 hPa East 4.8 km/h 14.5 km/h 36 % 0.0 mm
13:42 30.5 °C 14.2 °C 1009.4 hPa SE 1.6 km/h 14.5 km/h 37 % 0.0 mm
13:47 30.6 °C 13.4 °C 1009.4 hPa SE 4.8 km/h 14.5 km/h 35 % 0.0 mm
13:52 30.7 °C 13.9 °C 1009.4 hPa East 6.4 km/h 14.5 km/h 36 % 0.0 mm
13:57 31.2 °C 13.5 °C 1009.0 hPa ESE 1.6 km/h 12.9 km/h 34 % 0.0 mm
14:02 31.8 °C 13.1 °C 1009.0 hPa SSW 8.0 km/h 16.1 km/h 32 % 0.0 mm
14:07 31.6 °C 13.4 °C 1009.0 hPa ENE 6.4 km/h 17.7 km/h 33 % 0.0 mm
14:17 31.9 °C 13.2 °C 1008.7 hPa East 11.3 km/h 17.7 km/h 32 % 0.0 mm
14:22 31.9 °C 13.2 °C 1008.7 hPa ESE 4.8 km/h 14.5 km/h 32 % 0.0 mm
14:32 32.1 °C 13.8 °C 1008.7 hPa SSE 1.6 km/h 14.5 km/h 33 % 0.0 mm
14:37 32.1 °C 13.3 °C 1008.4 hPa South 4.8 km/h 16.1 km/h 32 % 0.0 mm
14:42 32.6 °C 13.3 °C 1008.4 hPa NE 1.6 km/h 16.1 km/h 31 % 0.0 mm
14:47 32.8 °C 12.9 °C 1008.4 hPa SW 1.6 km/h 16.1 km/h 30 % 0.0 mm
14:52 33.0 °C 13.1 °C 1008.4 hPa SE 3.2 km/h 14.5 km/h 30 % 0.0 mm
14:57 32.6 °C 12.3 °C 1008.4 hPa East 4.8 km/h 14.5 km/h 29 % 0.0 mm
15:02 32.7 °C 12.3 °C 1008.4 hPa WSW 8.0 km/h 16.1 km/h 29 % 0.0 mm
15:07 32.9 °C 12.0 °C 1008.4 hPa South 8.0 km/h 17.7 km/h 28 % 0.0 mm
15:12 32.9 °C 12.0 °C 1008.4 hPa ESE 16.1 km/h 19.3 km/h 28 % 0.0 mm
15:17 33.1 °C 12.1 °C 1008.4 hPa ESE 3.2 km/h 19.3 km/h 28 % 0.0 mm
15:22 33.0 °C 12.1 °C 1008.0 hPa ESE 8.0 km/h 17.7 km/h 28 % 0.0 mm
15:32 33.7 °C 12.1 °C 1008.0 hPa WSW 3.2 km/h 12.9 km/h 27 % 0.0 mm
15:37 33.7 °C 12.1 °C 1008.0 hPa ENE 3.2 km/h 11.3 km/h 27 % 0.0 mm
15:47 33.7 °C 13.2 °C 1007.7 hPa SE 4.8 km/h 17.7 km/h 29 % 0.0 mm
15:52 33.7 °C 13.2 °C 1007.7 hPa SSE 9.7 km/h 17.7 km/h 29 % 0.0 mm
15:57 33.6 °C 12.6 °C 1007.7 hPa ENE 6.4 km/h 17.7 km/h 28 % 0.0 mm
16:02 33.2 °C 12.2 °C 1007.7 hPa ESE 8.0 km/h 14.5 km/h 28 % 0.0 mm
16:07 33.4 °C 12.4 °C 1007.3 hPa ESE 12.9 km/h 14.5 km/h 28 % 0.0 mm
16:12 33.2 °C 11.7 °C 1007.3 hPa South 8.0 km/h 14.5 km/h 27 % 0.0 mm
16:17 33.2 °C 11.7 °C 1007.3 hPa East 8.0 km/h 16.1 km/h 27 % 0.0 mm
16:22 33.4 °C 11.9 °C 1007.3 hPa SSE 4.8 km/h 16.1 km/h 27 % 0.0 mm
16:27 33.4 °C 11.9 °C 1007.3 hPa ESE 4.8 km/h 16.1 km/h 27 % 0.0 mm
16:32 33.2 °C 11.7 °C 1007.3 hPa SE 11.3 km/h 14.5 km/h 27 % 0.0 mm
16:37 33.2 °C 11.7 °C 1007.0 hPa ESE 3.2 km/h 16.1 km/h 27 % 0.0 mm
16:42 33.3 °C 11.8 °C 1007.0 hPa East 1.6 km/h 16.1 km/h 27 % 0.0 mm
16:47 33.5 °C 11.9 °C 1007.0 hPa SSW 9.7 km/h 14.5 km/h 27 % 0.0 mm
16:52 33.6 °C 11.4 °C 1007.0 hPa SE 6.4 km/h 17.7 km/h 26 % 0.0 mm
16:57 33.6 °C 11.4 °C 1006.7 hPa SE 8.0 km/h 17.7 km/h 26 % 0.0 mm
17:02 33.6 °C 11.4 °C 1006.7 hPa WSW 4.8 km/h 17.7 km/h 26 % 0.0 mm
17:07 33.7 °C 11.5 °C 1006.7 hPa SE 6.4 km/h 17.7 km/h 26 % 0.0 mm
17:12 33.8 °C 11.6 °C 1006.7 hPa SW 6.4 km/h 20.9 km/h 26 % 0.0 mm
17:17 33.8 °C 11.0 °C 1006.7 hPa SSE 4.8 km/h 20.9 km/h 25 % 0.0 mm
17:22 33.6 °C 11.4 °C 1006.7 hPa SSE 4.8 km/h 20.9 km/h 26 % 0.0 mm
17:32 32.7 °C 11.3 °C 1006.7 hPa SE 8.0 km/h 16.1 km/h 27 % 0.0 mm
17:37 32.7 °C 11.3 °C 1006.7 hPa ENE 1.6 km/h 16.1 km/h 27 % 0.0 mm
17:42 32.9 °C 11.4 °C 1006.7 hPa SSW 6.4 km/h 17.7 km/h 27 % 0.0 mm
17:52 32.9 °C 11.4 °C 1006.3 hPa SW 6.4 km/h 17.7 km/h 27 % 0.0 mm
17:57 32.9 °C 11.4 °C 1006.3 hPa ESE 6.4 km/h 9.7 km/h 27 % 0.0 mm
18:02 33.2 °C 12.2 °C 1006.3 hPa South 1.6 km/h 11.3 km/h 28 % 0.0 mm
18:07 33.3 °C 11.8 °C 1006.3 hPa SSE 1.6 km/h 11.3 km/h 27 % 0.0 mm
18:12 33.3 °C 11.8 °C 1006.3 hPa SSE 6.4 km/h 12.9 km/h 27 % 0.0 mm
18:17 33.3 °C 11.8 °C 1006.3 hPa ENE 1.6 km/h 16.1 km/h 27 % 0.0 mm
18:22 33.3 °C 11.8 °C 1006.3 hPa SSW 3.2 km/h 16.1 km/h 27 % 0.0 mm
18:27 33.4 °C 11.9 °C 1006.0 hPa SSE 3.2 km/h 16.1 km/h 27 % 0.0 mm
18:32 33.3 °C 12.3 °C 1006.0 hPa SW 3.2 km/h 16.1 km/h 28 % 0.0 mm
18:37 33.3 °C 12.3 °C 1006.0 hPa SW 1.6 km/h 14.5 km/h 28 % 0.0 mm
18:42 33.2 °C 12.2 °C 1006.0 hPa Calm   14.5 km/h 28 % 0.0 mm
18:47 33.1 °C 12.1 °C 1006.0 hPa East 3.2 km/h 11.3 km/h 28 % 0.0 mm
18:52 32.9 °C 12.5 °C 1006.0 hPa SE 1.6 km/h 11.3 km/h 29 % 0.0 mm
18:57 32.9 °C 12.5 °C 1006.0 hPa ESE 1.6 km/h 9.7 km/h 29 % 0.0 mm
19:02 32.7 °C 12.3 °C 1005.6 hPa East 6.4 km/h 9.7 km/h 29 % 0.0 mm
19:12 31.8 °C 13.1 °C 1005.6 hPa ENE 6.4 km/h 11.3 km/h 32 % 0.0 mm
19:17 31.5 °C 13.3 °C 1005.6 hPa ENE 6.4 km/h 12.9 km/h 33 % 0.0 mm
19:22 31.2 °C 13.5 °C 1005.6 hPa East 9.7 km/h 12.9 km/h 34 % 0.0 mm
19:32 30.7 °C 13.5 °C 1005.6 hPa ESE 11.3 km/h 12.9 km/h 35 % 0.0 mm
19:37 30.6 °C 13.8 °C 1005.6 hPa ENE 6.4 km/h 12.9 km/h 36 % 0.0 mm
19:42 30.3 °C 13.6 °C 1005.6 hPa ENE 4.8 km/h 11.3 km/h 36 % 0.0 mm
19:52 29.9 °C 13.6 °C 1005.3 hPa ENE 6.4 km/h 12.9 km/h 37 % 0.0 mm
20:12 29.3 °C 13.5 °C 1005.6 hPa SE 8.0 km/h 14.5 km/h 38 % 0.0 mm
20:22 28.8 °C 13.5 °C 1005.6 hPa ENE 3.2 km/h 12.9 km/h 39 % 0.0 mm
20:27 28.7 °C 13.8 °C 1005.6 hPa East 4.8 km/h 11.3 km/h 40 % 0.0 mm
20:32 28.4 °C 13.5 °C 1005.6 hPa East 6.4 km/h 9.7 km/h 40 % 0.0 mm
20:37 28.3 °C 13.4 °C 1005.6 hPa East 9.7 km/h 12.9 km/h 40 % 0.0 mm
20:42 28.3 °C 13.4 °C 1005.6 hPa East 9.7 km/h 12.9 km/h 40 % 0.0 mm
20:47 28.3 °C 13.0 °C 1005.6 hPa East 9.7 km/h 16.1 km/h 39 % 0.0 mm
20:52 28.3 °C 13.0 °C 1005.6 hPa ESE 6.4 km/h 16.1 km/h 39 % 0.0 mm
20:57 28.3 °C 13.0 °C 1006.0 hPa East 8.0 km/h 17.7 km/h 39 % 0.0 mm
21:07 27.9 °C 13.1 °C 1006.0 hPa ENE 9.7 km/h 14.5 km/h 40 % 0.0 mm
21:12 27.8 °C 13.0 °C 1006.0 hPa East 9.7 km/h 14.5 km/h 40 % 0.0 mm
21:17 27.9 °C 13.1 °C 1006.0 hPa East 6.4 km/h 17.7 km/h 40 % 0.0 mm
21:22 27.8 °C 13.0 °C 1006.0 hPa ENE 3.2 km/h 17.7 km/h 40 % 0.0 mm
21:27 27.6 °C 12.8 °C 1006.3 hPa East 1.6 km/h 17.7 km/h 40 % 0.0 mm
21:32 27.3 °C 12.5 °C 1006.3 hPa Calm   11.3 km/h 40 % 0.0 mm
21:37 27.0 °C 12.6 °C 1006.3 hPa East 1.6 km/h 11.3 km/h 41 % 0.0 mm
21:42 26.8 °C 12.8 °C 1006.3 hPa ESE 1.6 km/h 11.3 km/h 42 % 0.0 mm
21:47 26.6 °C 12.6 °C 1006.3 hPa Calm   6.4 km/h 42 % 0.0 mm
21:52 26.5 °C 12.5 °C 1006.3 hPa Calm   8.0 km/h 42 % 0.0 mm
22:02 26.3 °C 12.7 °C 1006.7 hPa SE 4.8 km/h 14.5 km/h 43 % 0.0 mm
22:07 26.2 °C 12.6 °C 1006.7 hPa SE 1.6 km/h 11.3 km/h 43 % 0.0 mm
22:12 26.2 °C 13.0 °C 1006.7 hPa SSE 1.6 km/h 9.7 km/h 44 % 0.0 mm
22:17 26.1 °C 12.9 °C 1006.7 hPa ESE 3.2 km/h 14.5 km/h 44 % 0.0 mm
22:22 26.1 °C 12.9 °C 1006.7 hPa ESE 3.2 km/h 14.5 km/h 44 % 0.0 mm
22:32 26.0 °C 12.8 °C 1007.0 hPa East 3.2 km/h 11.3 km/h 44 % 0.0 mm
22:37 26.0 °C 12.8 °C 1007.0 hPa East 6.4 km/h 14.5 km/h 44 % 0.0 mm
22:42 26.0 °C 12.8 °C 1006.7 hPa East 3.2 km/h 14.5 km/h 44 % 0.0 mm
22:47 26.0 °C 12.8 °C 1006.7 hPa East 1.6 km/h 14.5 km/h 44 % 0.0 mm
22:52 25.9 °C 12.7 °C 1006.7 hPa SE 6.4 km/h 14.5 km/h 44 % 0.0 mm
22:57 25.9 °C 12.7 °C 1006.7 hPa SE 4.8 km/h 14.5 km/h 44 % 0.0 mm
23:02 26.0 °C 12.8 °C 1006.7 hPa ESE 8.0 km/h 16.1 km/h 44 % 0.0 mm
23:07 25.9 °C 12.7 °C 1006.7 hPa NE 3.2 km/h 16.1 km/h 44 % 0.0 mm
23:12 25.7 °C 12.9 °C 1006.7 hPa ENE 1.6 km/h 16.1 km/h 45 % 0.0 mm
23:17 25.5 °C 12.7 °C 1006.7 hPa ENE 1.6 km/h 11.3 km/h 45 % 0.0 mm
23:22 25.3 °C 12.8 °C 1006.7 hPa SE 3.2 km/h 9.7 km/h 46 % 0.0 mm
23:32 25.0 °C 12.9 °C 1007.0 hPa South 6.4 km/h 12.9 km/h 47 % 0.0 mm
23:37 24.9 °C 12.8 °C 1007.3 hPa SE 1.6 km/h 12.9 km/h 47 % 0.0 mm
23:42 24.8 °C 12.7 °C 1007.3 hPa SSE 1.6 km/h 11.3 km/h 47 % 0.0 mm
23:47 24.7 °C 12.6 °C 1007.3 hPa SSE 6.4 km/h 11.3 km/h 47 % 0.0 mm
23:52 24.7 °C 12.6 °C 1007.3 hPa SSE 4.8 km/h 12.9 km/h 47 % 0.0 mm
Meteo18
Compliments of Weather Underground - 4 mb

Script developed by  Jim McMurry - jmcmurry@mwt.net Adapted for the template by  Wim van der Kuil - Leuven-Template.eu

You find our weather info also at:

European Weather Network

Weather Underground

Equipment we use:

Weather-station
Davis Vue

Weather-program
Meteobridge

Weather-server
Raspberry PI 2 B+

Provider
1 and 1

Davis Vue

Meteobridge

Raspberry PI 2 B+

1 and 1